Tracking 19170 objects as of 22-May-2018
HD Live streaming from Space Station
objects crossing your sky now

COSMOS 87

Track COSMOS 87 now!
10-day predictions
COSMOS 87 is classified as:


NORAD ID: 1585
Int'l Code: 1965-073B
Perigee: 1,323.3 km
Apogee: 1,641.5 km
Inclination: 56.1 °
Period: 115.4 minutes
Semi major axis: 7853 km
RCS: 0.3642 m2 (medium)
Launch date: September 18, 1965
Source: Commonwealth of Independent States (former USSR) (CIS)
Launch site: TYURATAM MISSILE AND SPACE COMPLEX (TTMTR)
aabbcc
Your satellite tracking list
Your tracking list is empty




NASA's NSSDC Master Catalog

Two Line Element Set (TLE):
1  1585U 65073B   18141.75116440 -.00000107 +00000-0 -73274-4 0  9990
2  1585 056.0611 287.7708 0202588 030.8749 080.9614 12.47422316398027
Source of the keplerian elements: AFSPC